Time,TemperatureF,DewpointF,PressureIn,WindDirection,WindDirectionDegrees,WindSpeedMPH,WindSpeedGustMPH,Humidity,HourlyPrecipIn,Conditions,Clouds,dailyrainin,SolarRadiationWatts/m^2,SoftwareType,DateUTC
2013-03-08 00:03:00,41.3,26.3,29.97,NW,311,0.0,0.0,55,0.00,CLR,,0.00,0.0,WeatherDisplay:10.37,2013-03-08 07:03:00,
2013-03-08 00:08:00,41.0,26.1,29.97,NW,311,0.0,0.0,55,0.00,CLR,,0.00,0.0,WeatherDisplay:10.37,2013-03-08 07:08:00,
2013-03-08 00:13:00,40.7,26.2,29.97,NW,311,0.0,0.0,56,0.00,CLR,,0.00,0.0,WeatherDisplay:10.37,2013-03-08 07:13:00,
2013-03-08 00:18:00,40.5,26.0,29.97,NNE,12,0.2,0.0,56,0.00,CLR,,0.00,0.0,WeatherDisplay:10.37,2013-03-08 07:18:00,
2013-03-08 00:23:00,40.2,26.6,29.97,NNE,12,0.0,1.1,58,0.00,CLR,,0.00,0.0,WeatherDisplay:10.37,2013-03-08 07:23:00,
2013-03-08 00:28:00,39.9,26.3,29.97,NNE,12,0.0,0.0,58,0.00,CLR,,0.00,0.0,WeatherDisplay:10.37,2013-03-08 07:28:00,
2013-03-08 00:33:00,39.5,26.3,29.97,NNE,12,0.0,0.0,59,0.00,CLR,,0.00,0.0,WeatherDisplay:10.37,2013-03-08 07:33:00,
2013-03-08 00:38:00,39.1,26.0,29.97,NNE,12,0.1,0.0,59,0.00,CLR,,0.00,0.0,WeatherDisplay:10.37,2013-03-08 07:38:00,
2013-03-08 00:43:00,38.8,26.1,29.97,NNE,12,0.0,0.0,60,0.00,CLR,,0.00,0.0,WeatherDisplay:10.37,2013-03-08 07:43:00,
2013-03-08 00:48:00,38.5,25.8,29.97,NNE,12,0.0,0.0,60,0.00,CLR,,0.00,0.0,WeatherDisplay:10.37,2013-03-08 07:48:00,
2013-03-08 00:53:00,38.2,26.3,29.97,North,11,0.9,2.0,62,0.00,CLR,,0.00,0.0,WeatherDisplay:10.37,2013-03-08 07:53:00,
2013-03-08 00:58:00,38.0,26.5,29.97,NNW,337,2.6,6.9,63,0.00,CLR,,0.00,0.0,WeatherDisplay:10.37,2013-03-08 07:58:00,
2013-03-08 01:03:00,38.0,26.9,29.97,NNW,343,0.1,2.3,64,0.00,CLR,,0.00,0.0,WeatherDisplay:10.37,2013-03-08 08:03:00,
2013-03-08 01:08:00,38.0,27.3,29.97,North,11,0.4,1.1,65,0.00,CLR,,0.00,0.0,WeatherDisplay:10.37,2013-03-08 08:08:00,
2013-03-08 01:13:00,38.1,27.0,29.97,North,11,0.5,1.1,64,0.00,CLR,,0.00,0.0,WeatherDisplay:10.37,2013-03-08 08:13:00,
2013-03-08 01:18:00,38.1,27.0,29.97,North,10,0.0,1.1,64,0.00,CLR,,0.00,0.0,WeatherDisplay:10.37,2013-03-08 08:18:00,
2013-03-08 01:23:00,38.0,26.9,29.97,North,10,0.0,0.0,64,0.00,CLR,,0.00,0.0,WeatherDisplay:10.37,2013-03-08 08:23:00,
2013-03-08 01:28:00,37.8,26.7,29.97,North,10,0.0,0.0,64,0.00,CLR,,0.00,0.0,WeatherDisplay:10.37,2013-03-08 08:28:00,
2013-03-08 01:33:00,37.5,26.4,29.96,North,10,0.0,0.0,64,0.00,CLR,,0.00,0.0,WeatherDisplay:10.37,2013-03-08 08:33:00,
2013-03-08 01:38:00,37.3,26.2,29.96,North,10,0.0,0.0,64,0.00,CLR,,0.00,0.0,WeatherDisplay:10.37,2013-03-08 08:38:00,
2013-03-08 01:43:00,37.0,26.3,29.96,North,10,0.1,0.0,65,0.00,CLR,,0.00,0.0,WeatherDisplay:10.37,2013-03-08 08:43:00,
2013-03-08 01:48:00,36.7,26.0,29.96,North,10,0.0,0.0,65,0.00,CLR,,0.00,0.0,WeatherDisplay:10.37,2013-03-08 08:48:00,
2013-03-08 01:53:00,36.4,25.7,29.95,North,10,0.0,0.0,65,0.00,CLR,,0.00,0.0,WeatherDisplay:10.37,2013-03-08 08:53:00,
2013-03-08 01:58:00,36.1,25.8,29.95,North,10,0.0,0.0,66,0.00,CLR,,0.00,0.0,WeatherDisplay:10.37,2013-03-08 08:58:00,
2013-03-08 02:03:00,35.7,25.8,29.95,North,11,0.0,0.0,67,0.00,CLR,,0.00,0.0,WeatherDisplay:10.37,2013-03-08 09:03:00,
2013-03-08 02:08:00,35.4,25.5,29.95,North,10,0.0,0.0,67,0.00,CLR,,0.00,0.0,WeatherDisplay:10.37,2013-03-08 09:08:00,
2013-03-08 02:13:00,35.0,25.5,29.94,North,10,0.4,1.1,68,0.00,CLR,,0.00,0.0,WeatherDisplay:10.37,2013-03-08 09:13:00,
2013-03-08 02:18:00,34.6,25.1,29.94,NW,325,0.6,2.3,68,0.00,CLR,,0.00,0.0,WeatherDisplay:10.37,2013-03-08 09:18:00,
2013-03-08 02:23:00,34.1,25.0,29.94,WNW,300,0.0,2.3,69,0.00,CLR,,0.00,0.0,WeatherDisplay:10.37,2013-03-08 09:23:00,
2013-03-08 02:28:00,33.8,25.0,29.95,WNW,300,0.1,1.1,70,0.00,CLR,,0.00,0.0,WeatherDisplay:10.37,2013-03-08 09:28:00,
2013-03-08 02:33:00,33.5,24.8,29.95,WNW,297,0.0,0.0,70,0.00,CLR,,0.00,0.0,WeatherDisplay:10.37,2013-03-08 09:33:00,
2013-03-08 02:39:00,33.2,24.8,29.95,WNW,297,0.1,0.0,71,0.00,CLR,,0.00,0.0,WeatherDisplay:10.37,2013-03-08 09:39:00,
2013-03-08 02:44:00,32.9,24.9,29.95,WNW,297,0.0,0.0,72,0.00,CLR,,0.00,0.0,WeatherDisplay:10.37,2013-03-08 09:44:00,
2013-03-08 02:49:00,32.6,24.6,29.94,WNW,297,0.0,0.0,72,0.00,CLR,,0.00,0.0,WeatherDisplay:10.37,2013-03-08 09:49:00,
2013-03-08 02:54:00,32.4,24.7,29.94,WNW,297,0.0,0.0,73,0.00,CLR,,0.00,0.0,WeatherDisplay:10.37,2013-03-08 09:54:00,
2013-03-08 02:59:00,32.1,24.4,29.94,WNW,297,0.0,0.0,73,0.00,CLR,,0.00,0.0,WeatherDisplay:10.37,2013-03-08 09:59:00,
2013-03-08 03:04:00,32.0,24.3,29.95,WNW,297,0.0,0.0,73,0.00,CLR,,0.00,0.0,WeatherDisplay:10.37,2013-03-08 10:04:00,
2013-03-08 03:09:00,31.8,24.5,29.95,WNW,297,0.0,0.0,74,0.00,CLR,,0.00,0.0,WeatherDisplay:10.37,2013-03-08 10:09:00,
2013-03-08 03:14:00,31.6,24.6,29.94,WNW,297,0.0,0.0,75,0.00,CLR,,0.00,0.0,WeatherDisplay:10.37,2013-03-08 10:14:00,
2013-03-08 03:19:00,31.5,24.5,29.95,WNW,297,0.0,0.0,75,0.00,CLR,,0.00,0.0,WeatherDisplay:10.37,2013-03-08 10:19:00,
2013-03-08 03:24:00,31.2,24.5,29.95,WNW,297,0.0,0.0,76,0.00,CLR,,0.00,0.0,WeatherDisplay:10.37,2013-03-08 10:24:00,
2013-03-08 03:29:00,31.0,24.3,29.95,WNW,297,0.0,0.0,76,0.00,CLR,,0.00,0.0,WeatherDisplay:10.37,2013-03-08 10:29:00,
2013-03-08 03:34:00,30.8,24.1,29.95,WNW,297,0.0,0.0,76,0.00,CLR,,0.00,0.0,WeatherDisplay:10.37,2013-03-08 10:34:00,
2013-03-08 03:39:00,30.7,24.3,29.95,WNW,297,0.0,0.0,77,0.00,CLR,,0.00,0.0,WeatherDisplay:10.37,2013-03-08 10:39:00,
2013-03-08 03:44:00,30.5,24.1,29.95,WNW,297,0.0,0.0,77,0.00,CLR,,0.00,0.0,WeatherDisplay:10.37,2013-03-08 10:44:00,
2013-03-08 03:49:00,30.4,24.4,29.95,WNW,297,0.0,0.0,78,0.00,CLR,,0.00,0.0,WeatherDisplay:10.37,2013-03-08 10:49:00,
2013-03-08 03:54:00,30.3,24.3,29.95,WNW,297,0.0,0.0,78,0.00,CLR,,0.00,0.0,WeatherDisplay:10.37,2013-03-08 10:54:00,
2013-03-08 03:59:00,30.1,24.1,29.95,WNW,297,0.0,0.0,78,0.00,CLR,,0.00,0.0,WeatherDisplay:10.37,2013-03-08 10:59:00,
2013-03-08 04:04:00,30.0,24.0,29.95,WNW,293,1.5,3.5,78,0.00,CLR,,0.00,0.0,WeatherDisplay:10.37,2013-03-08 11:04:00,
2013-03-08 04:09:00,29.9,24.2,29.95,WNW,293,0.7,2.3,79,0.00,CLR,,0.00,0.0,WeatherDisplay:10.37,2013-03-08 11:09:00,
2013-03-08 04:14:00,29.7,24.0,29.95,WNW,293,0.0,0.0,79,0.00,CLR,,0.00,0.0,WeatherDisplay:10.37,2013-03-08 11:14:00,
2013-03-08 04:19:00,29.7,24.6,29.95,WNW,293,0.0,0.0,81,0.00,CLR,,0.00,0.0,WeatherDisplay:10.37,2013-03-08 11:19:00,
2013-03-08 04:24:00,29.6,24.5,29.96,WNW,293,0.0,0.0,81,0.00,CLR,,0.00,0.0,WeatherDisplay:10.37,2013-03-08 11:24:00,
2013-03-08 04:29:00,29.6,24.8,29.96,WNW,293,0.0,0.0,82,0.00,CLR,,0.00,0.0,WeatherDisplay:10.37,2013-03-08 11:29:00,
2013-03-08 04:34:00,29.5,24.7,29.95,WNW,293,0.0,0.0,82,0.00,CLR,,0.00,0.0,WeatherDisplay:10.37,2013-03-08 11:34:00,
2013-03-08 04:39:00,29.5,24.7,29.95,WNW,293,0.7,1.1,82,0.00,CLR,,0.00,0.0,WeatherDisplay:10.37,2013-03-08 11:39:00,
2013-03-08 04:44:00,29.5,24.7,29.95,WNW,293,0.0,0.0,82,0.00,CLR,,0.00,0.0,WeatherDisplay:10.37,2013-03-08 11:44:00,
2013-03-08 04:49:00,29.5,24.7,29.95,WNW,293,0.0,0.0,82,0.00,CLR,,0.00,0.0,WeatherDisplay:10.37,2013-03-08 11:49:00,
2013-03-08 04:54:00,29.5,25.0,29.96,WNW,293,0.0,0.0,83,0.00,CLR,,0.00,0.0,WeatherDisplay:10.37,2013-03-08 11:54:00,
2013-03-08 04:59:00,29.5,25.0,29.96,WNW,293,0.0,0.0,83,0.00,CLR,,0.00,0.0,WeatherDisplay:10.37,2013-03-08 11:59:00,
2013-03-08 05:04:00,29.5,25.0,29.96,WNW,293,0.0,0.0,83,0.00,CLR,,0.00,0.0,WeatherDisplay:10.37,2013-03-08 12:04:00,
2013-03-08 05:09:00,29.5,25.0,29.96,WNW,293,0.0,0.0,83,0.00,CLR,,0.00,0.0,WeatherDisplay:10.37,2013-03-08 12:09:00,
2013-03-08 05:14:00,29.5,25.0,29.96,WNW,293,0.0,0.0,83,0.00,CLR,,0.00,0.0,WeatherDisplay:10.37,2013-03-08 12:14:00,
2013-03-08 05:19:00,29.5,25.0,29.96,WNW,293,0.0,0.0,83,0.00,CLR,,0.00,0.0,WeatherDisplay:10.37,2013-03-08 12:19:00,
2013-03-08 05:24:00,29.5,24.7,29.95,WNW,293,0.0,0.0,82,0.00,CLR,,0.00,0.0,WeatherDisplay:10.37,2013-03-08 12:24:00,
2013-03-08 05:29:00,29.5,25.0,29.95,WNW,293,0.0,0.0,83,0.00,CLR,,0.00,0.0,WeatherDisplay:10.37,2013-03-08 12:29:00,
2013-03-08 05:34:00,29.5,25.0,29.96,WNW,293,0.0,0.0,83,0.00,CLR,,0.00,0.0,WeatherDisplay:10.37,2013-03-08 12:34:00,
2013-03-08 05:39:00,29.5,25.0,29.96,WNW,293,0.0,0.0,83,0.00,CLR,,0.00,0.0,WeatherDisplay:10.37,2013-03-08 12:39:00,
2013-03-08 05:44:00,29.4,24.9,29.96,NW,311,0.0,0.0,83,0.00,CLR,,0.00,0.0,WeatherDisplay:10.37,2013-03-08 12:44:00,
2013-03-08 05:49:00,29.4,24.9,29.96,NW,309,1.9,3.5,83,0.00,CLR,,0.00,0.0,WeatherDisplay:10.37,2013-03-08 12:49:00,
2013-03-08 05:54:00,29.6,25.4,29.96,NW,307,0.1,1.1,84,0.00,CLR,,0.00,0.0,WeatherDisplay:10.37,2013-03-08 12:54:00,
2013-03-08 05:59:00,29.9,25.9,29.96,NW,314,1.9,3.5,85,0.00,CLR,,0.00,0.0,WeatherDisplay:10.37,2013-03-08 12:59:00,
2013-03-08 06:04:00,30.3,26.6,29.97,North,355,1.3,2.3,86,0.00,CLR,,0.00,0.0,WeatherDisplay:10.37,2013-03-08 13:04:00,
2013-03-08 06:09:00,30.6,26.9,29.96,North,355,0.7,2.3,86,0.00,CLR,,0.00,0.0,WeatherDisplay:10.37,2013-03-08 13:09:00,
2013-03-08 06:14:00,30.9,27.2,29.96,North,5,0.0,0.0,86,0.00,CLR,,0.00,0.0,WeatherDisplay:10.37,2013-03-08 13:14:00,
2013-03-08 06:19:00,31.1,27.1,29.97,NW,325,0.9,3.5,85,0.00,BKN,,0.00,0.0,WeatherDisplay:10.37,2013-03-08 13:19:00,
2013-03-08 06:24:00,31.3,27.3,29.96,NW,322,0.1,1.1,85,0.00,BKN,,0.00,5.5,WeatherDisplay:10.37,2013-03-08 13:24:00,
2013-03-08 06:29:00,31.4,27.4,29.96,NW,322,0.0,0.0,85,0.00,BKN,,0.00,12.1,WeatherDisplay:10.37,2013-03-08 13:29:00,
2013-03-08 06:34:00,31.5,27.2,29.96,NW,322,0.1,1.1,84,0.00,BKN,,0.00,17.6,WeatherDisplay:10.37,2013-03-08 13:34:00,
2013-03-08 06:39:00,31.6,27.3,29.96,NW,322,0.0,0.0,84,0.00,BKN,,0.00,19.8,WeatherDisplay:10.37,2013-03-08 13:39:00,
2013-03-08 06:44:00,31.6,27.3,29.96,NW,322,0.0,0.0,84,0.00,BKN,,0.00,27.5,WeatherDisplay:10.37,2013-03-08 13:44:00,
2013-03-08 06:49:00,31.6,27.3,29.96,NW,322,0.0,0.0,84,0.00,BKN,,0.00,38.5,WeatherDisplay:10.37,2013-03-08 13:49:00,
2013-03-08 06:54:00,31.5,26.9,29.96,NW,322,0.0,0.0,83,0.00,BKN,,0.00,56.1,WeatherDisplay:10.37,2013-03-08 13:54:00,
2013-03-08 06:59:00,31.6,27.0,29.96,NW,322,0.0,0.0,83,0.00,BKN,,0.00,68.2,WeatherDisplay:10.37,2013-03-08 13:59:00,
2013-03-08 07:04:00,31.5,27.2,29.96,NW,322,0.0,0.0,84,0.00,BKN,,0.00,115.5,WeatherDisplay:10.37,2013-03-08 14:04:00,
2013-03-08 07:09:00,31.7,27.4,29.96,NW,322,0.1,1.1,84,0.00,BKN,,0.00,135.3,WeatherDisplay:10.37,2013-03-08 14:09:00,
2013-03-08 07:14:00,31.9,27.6,29.96,NW,322,0.1,1.1,84,0.00,BKN,,0.00,129.8,WeatherDisplay:10.37,2013-03-08 14:14:00,
2013-03-08 07:19:00,32.2,27.9,29.96,NW,322,0.1,1.1,84,0.00,BKN,,0.00,140.8,WeatherDisplay:10.37,2013-03-08 14:19:00,
2013-03-08 07:24:00,32.5,28.2,29.96,NNW,343,0.4,3.0,84,0.00,BKN,,0.00,176.0,WeatherDisplay:10.37,2013-03-08 14:24:00,
2013-03-08 07:29:00,32.9,28.6,29.96,NW,323,1.6,3.5,84,0.00,BKN,,0.00,211.2,WeatherDisplay:10.37,2013-03-08 14:29:00,
2013-03-08 07:34:00,33.3,28.7,29.95,North,351,0.9,3.0,83,0.00,BKN,,0.00,224.4,WeatherDisplay:10.37,2013-03-08 14:34:00,
2013-03-08 07:39:00,33.8,28.9,29.95,NW,315,2.1,4.0,82,0.00,BKN,,0.00,110.0,WeatherDisplay:10.37,2013-03-08 14:39:00,
2013-03-08 07:44:00,34.1,28.9,29.95,NNW,331,2.2,5.8,81,0.00,BKN,,0.00,162.8,WeatherDisplay:10.37,2013-03-08 14:44:00,
2013-03-08 07:49:00,34.3,29.1,29.96,North,355,1.2,3.5,81,0.00,BKN,,0.00,115.5,WeatherDisplay:10.37,2013-03-08 14:49:00,
2013-03-08 07:54:00,34.4,28.6,29.95,North,360,0.6,1.1,79,0.00,BKN,,0.00,163.9,WeatherDisplay:10.37,2013-03-08 14:54:00,
2013-03-08 07:59:00,34.6,28.8,29.95,North,11,0.5,2.3,79,0.00,BKN,,0.00,124.3,WeatherDisplay:10.37,2013-03-08 14:59:00,
2013-03-08 08:04:00,34.7,28.5,29.96,North,11,0.0,0.0,78,0.00,BKN,,0.00,133.1,WeatherDisplay:10.37,2013-03-08 15:04:00,
2013-03-08 08:09:00,34.9,28.7,29.95,North,11,0.2,1.1,78,0.00,BKN,,0.00,125.4,WeatherDisplay:10.37,2013-03-08 15:09:00,
2013-03-08 08:14:00,35.0,28.8,29.95,North,355,2.7,4.6,78,0.00,BKN,,0.00,173.8,WeatherDisplay:10.37,2013-03-08 15:14:00,
2013-03-08 08:19:00,35.3,29.1,29.95,NNW,333,1.8,3.5,78,0.00,BKN,,0.00,433.4,WeatherDisplay:10.37,2013-03-08 15:19:00,
2013-03-08 08:24:00,36.0,29.5,29.95,NNW,334,0.2,2.3,77,0.00,BKN,,0.00,423.5,WeatherDisplay:10.37,2013-03-08 15:24:00,
2013-03-08 08:29:00,36.3,29.1,29.95,North,350,1.5,2.3,75,0.00,BKN,,0.00,267.3,WeatherDisplay:10.37,2013-03-08 15:29:00,
2013-03-08 08:34:00,36.4,29.2,29.95,NNW,333,0.8,2.3,75,0.00,BKN,,0.00,280.5,WeatherDisplay:10.37,2013-03-08 15:34:00,
2013-03-08 08:39:00,36.6,29.4,29.95,North,350,0.3,3.5,75,0.00,BKN,,0.00,239.8,WeatherDisplay:10.37,2013-03-08 15:39:00,
2013-03-08 08:44:00,36.6,29.1,29.95,North,355,1.9,3.5,74,0.00,BKN,,0.00,214.5,WeatherDisplay:10.37,2013-03-08 15:44:00,
2013-03-08 08:49:00,36.7,29.2,29.95,NNW,331,2.7,3.5,74,0.00,BKN,,0.00,226.6,WeatherDisplay:10.37,2013-03-08 15:49:00,
2013-03-08 08:54:00,36.8,29.6,29.95,North,9,1.4,2.3,75,0.00,BKN,,0.00,396.0,WeatherDisplay:10.37,2013-03-08 15:54:00,
2013-03-08 08:59:00,36.9,29.4,29.95,NNW,336,3.2,5.0,74,0.00,BKN,,0.00,283.8,WeatherDisplay:10.37,2013-03-08 15:59:00,
2013-03-08 09:04:00,37.1,29.2,29.95,NNW,342,3.1,5.0,73,0.00,BKN,,0.00,268.4,WeatherDisplay:10.37,2013-03-08 16:04:00,
2013-03-08 09:09:00,37.2,29.0,29.94,NNE,14,0.8,2.3,72,0.00,BKN,,0.00,235.4,WeatherDisplay:10.37,2013-03-08 16:09:00,
2013-03-08 09:14:00,37.3,29.1,29.94,NW,310,4.1,5.8,72,0.00,BKN,,0.00,367.4,WeatherDisplay:10.37,2013-03-08 16:14:00,
2013-03-08 09:19:00,37.3,29.1,29.94,North,360,1.5,3.0,72,0.00,BKN,,0.00,275.0,WeatherDisplay:10.37,2013-03-08 16:19:00,
2013-03-08 09:24:00,37.5,29.3,29.94,NNW,340,1.6,3.5,72,0.00,BKN,,0.00,262.9,WeatherDisplay:10.37,2013-03-08 16:24:00,
2013-03-08 09:29:00,37.6,29.0,29.93,North,350,2.9,3.5,71,0.00,BKN,,0.00,347.6,WeatherDisplay:10.37,2013-03-08 16:29:00,
2013-03-08 09:34:00,37.7,29.1,29.93,NNW,342,4.4,5.8,71,0.00,BKN,,0.00,311.3,WeatherDisplay:10.37,2013-03-08 16:34:00,
2013-03-08 09:39:00,37.8,29.2,29.94,North,355,1.5,3.5,71,0.00,BKN,,0.00,385.0,WeatherDisplay:10.37,2013-03-08 16:39:00,
2013-03-08 09:44:00,38.2,29.3,29.93,North,355,0.1,2.3,70,0.00,BKN,,0.00,411.4,WeatherDisplay:10.37,2013-03-08 16:44:00,
2013-03-08 09:49:00,38.4,29.1,29.93,NNW,345,1.6,3.5,69,0.00,BKN,,0.00,396.0,WeatherDisplay:10.37,2013-03-08 16:49:00,
2013-03-08 09:54:00,38.7,29.4,29.93,NW,325,1.7,3.5,69,0.00,BKN,,0.00,326.7,WeatherDisplay:10.37,2013-03-08 16:54:00,
2013-03-08 09:59:00,38.9,29.2,29.93,NE,46,1.6,4.6,68,0.00,BKN,,0.00,259.6,WeatherDisplay:10.37,2013-03-08 16:59:00,
2013-03-08 10:04:00,39.0,29.7,29.92,NW,315,2.5,3.5,69,0.00,BKN,,0.00,239.8,WeatherDisplay:10.37,2013-03-08 17:04:00,
2013-03-08 10:09:00,39.1,29.8,29.92,NW,323,2.3,3.5,69,0.00,BKN,,0.00,234.3,WeatherDisplay:10.37,2013-03-08 17:09:00,
2013-03-08 10:14:00,39.2,29.9,29.92,NW,315,3.6,3.6,69,0.00,BKN,,0.00,239.8,WeatherDisplay:10.37,2013-03-08 17:14:00,
2013-03-08 10:19:00,39.2,29.5,29.92,WNW,300,3.6,3.6,68,0.00,BKN,,0.00,262.9,WeatherDisplay:10.37,2013-03-08 17:19:00,
2013-03-08 10:24:00,39.3,29.6,29.92,NNW,339,2.7,3.5,68,0.00,BKN,,0.00,303.6,WeatherDisplay:10.37,2013-03-08 17:24:00,
2013-03-08 10:29:00,39.5,29.8,29.92,North,11,2.5,3.5,68,0.00,BKN,,0.00,344.3,WeatherDisplay:10.37,2013-03-08 17:29:00,
2013-03-08 10:34:00,39.7,29.6,29.92,North,360,3.4,5.8,67,0.00,BKN,,0.00,354.2,WeatherDisplay:10.37,2013-03-08 17:34:00,
2013-03-08 10:39:00,39.9,29.8,29.92,NE,34,3.5,4.0,67,0.00,BKN,,0.00,367.4,WeatherDisplay:10.37,2013-03-08 17:39:00,
2013-03-08 10:44:00,40.1,29.6,29.92,NNE,33,1.7,3.5,66,0.00,BKN,,0.00,275.0,WeatherDisplay:10.37,2013-03-08 17:44:00,
2013-03-08 10:49:00,40.2,29.4,29.91,NNW,344,1.4,3.5,65,0.00,BKN,,0.00,282.7,WeatherDisplay:10.37,2013-03-08 17:49:00,
2013-03-08 10:54:00,40.3,29.5,29.92,North,349,1.2,3.5,65,0.00,BKN,,0.00,282.7,WeatherDisplay:10.37,2013-03-08 17:54:00,
2013-03-08 10:59:00,40.4,29.6,29.91,North,5,3.2,3.5,65,0.00,BKN,,0.00,283.8,WeatherDisplay:10.37,2013-03-08 17:59:00,
2013-03-08 11:04:00,40.5,29.7,29.91,NNW,343,0.2,2.3,65,0.00,BKN,,0.00,305.8,WeatherDisplay:10.37,2013-03-08 18:04:00,
2013-03-08 11:09:00,40.6,29.7,29.91,NNW,348,1.2,3.0,65,0.00,BKN,,0.00,309.1,WeatherDisplay:10.37,2013-03-08 18:09:00,
2013-03-08 11:14:00,40.8,29.6,29.91,NNW,340,2.9,5.8,64,0.00,BKN,,0.00,291.5,WeatherDisplay:10.37,2013-03-08 18:14:00,
2013-03-08 11:19:00,40.9,29.7,29.90,NNW,346,0.9,3.5,64,0.00,BKN,,0.00,323.4,WeatherDisplay:10.37,2013-03-08 18:19:00,
2013-03-08 11:24:00,40.9,29.7,29.90,NNE,26,2.4,3.5,64,0.00,BKN,,0.00,334.4,WeatherDisplay:10.37,2013-03-08 18:24:00,
2013-03-08 11:29:00,41.1,29.5,29.90,NE,43,3.1,4.0,63,0.00,BKN,,0.00,363.0,WeatherDisplay:10.37,2013-03-08 18:29:00,
2013-03-08 11:34:00,41.1,29.5,29.90,NNE,30,4.4,4.4,63,0.00,BKN,,0.00,388.3,WeatherDisplay:10.37,2013-03-08 18:34:00,
2013-03-08 11:39:00,41.2,29.5,29.90,NW,323,3.1,4.6,63,0.00,BKN,,0.00,410.3,WeatherDisplay:10.37,2013-03-08 18:39:00,
2013-03-08 11:45:00,41.4,29.7,29.89,NE,36,1.1,3.5,63,0.00,BKN,,0.00,446.6,WeatherDisplay:10.37,2013-03-08 18:45:00,
2013-03-08 11:50:00,41.7,29.6,29.89,NE,47,2.6,3.5,62,0.00,BKN,,0.00,421.3,WeatherDisplay:10.37,2013-03-08 18:50:00,
2013-03-08 11:55:00,41.8,29.3,29.89,NE,50,0.9,3.5,61,0.00,BKN,,0.00,448.8,WeatherDisplay:10.37,2013-03-08 18:55:00,
2013-03-08 12:00:00,42.1,29.6,29.88,NE,37,3.5,3.5,61,0.00,BKN,,0.00,512.6,WeatherDisplay:10.37,2013-03-08 19:00:00,
2013-03-08 12:05:00,42.3,29.0,29.88,NNW,340,2.9,3.5,59,0.00,BKN,,0.00,515.9,WeatherDisplay:10.37,2013-03-08 19:05:00,
2013-03-08 12:10:00,42.3,29.4,29.88,NE,38,0.4,1.1,60,0.00,BKN,,0.00,477.4,WeatherDisplay:10.37,2013-03-08 19:10:00,
2013-03-08 12:15:00,42.4,29.1,29.87,NNW,333,0.1,2.3,59,0.00,BKN,,0.00,418.0,WeatherDisplay:10.37,2013-03-08 19:15:00,
2013-03-08 12:20:00,43.0,29.7,29.87,WNW,287,3.0,5.0,59,0.00,BKN,,0.00,377.3,WeatherDisplay:10.37,2013-03-08 19:20:00,
2013-03-08 12:25:00,43.6,29.8,29.86,SW,221,0.0,3.0,58,0.00,BKN,,0.00,382.8,WeatherDisplay:10.37,2013-03-08 19:25:00,
2013-03-08 12:30:00,43.4,29.2,29.86,NW,322,0.9,3.5,57,0.00,BKN,,0.00,446.6,WeatherDisplay:10.37,2013-03-08 19:30:00,
2013-03-08 12:35:00,42.9,29.1,29.86,NNW,346,1.3,4.6,58,0.00,BKN,,0.00,576.4,WeatherDisplay:10.37,2013-03-08 19:35:00,
2013-03-08 12:40:00,42.8,29.0,29.86,NW,325,2.6,3.5,58,0.00,BKN,,0.00,458.7,WeatherDisplay:10.37,2013-03-08 19:40:00,
2013-03-08 12:45:00,42.9,29.1,29.85,NNE,31,2.3,3.5,58,0.00,BKN,,0.00,377.3,WeatherDisplay:10.37,2013-03-08 19:45:00,
2013-03-08 12:50:00,43.4,29.2,29.85,ENE,63,0.3,1.1,57,0.00,BKN,,0.00,372.9,WeatherDisplay:10.37,2013-03-08 19:50:00,
2013-03-08 12:55:00,43.5,28.8,29.84,NE,37,0.6,2.3,56,0.00,BKN,,0.00,369.6,WeatherDisplay:10.37,2013-03-08 19:55:00,
2013-03-08 13:00:00,43.4,29.2,29.84,NNE,19,0.8,1.1,57,0.00,BKN,,0.00,361.9,WeatherDisplay:10.37,2013-03-08 20:00:00,
2013-03-08 13:05:00,43.7,28.6,29.84,NW,322,2.1,3.0,55,0.00,BKN,,0.00,426.8,WeatherDisplay:10.37,2013-03-08 20:05:00,
2013-03-08 13:10:00,43.7,29.0,29.83,NNW,330,1.0,4.0,56,0.00,BKN,,0.00,367.4,WeatherDisplay:10.37,2013-03-08 20:10:00,
2013-03-08 13:15:00,43.8,28.7,29.83,NNE,15,2.0,5.0,55,0.00,BKN,,0.00,357.5,WeatherDisplay:10.37,2013-03-08 20:15:00,
2013-03-08 13:20:00,43.8,29.1,29.83,North,355,0.0,3.0,56,0.00,BKN,,0.00,344.3,WeatherDisplay:10.37,2013-03-08 20:20:00,
2013-03-08 13:25:00,44.3,29.6,29.83,WNW,299,2.0,5.0,56,0.00,BKN,,0.00,344.3,WeatherDisplay:10.37,2013-03-08 20:25:00,
2013-03-08 13:30:00,44.6,28.5,29.83,West,271,0.0,3.0,53,0.00,BKN,,0.00,319.0,WeatherDisplay:10.37,2013-03-08 20:30:00,
2013-03-08 13:35:00,44.7,29.1,29.83,West,271,0.0,3.0,54,0.00,BKN,,0.00,316.8,WeatherDisplay:10.37,2013-03-08 20:35:00,
2013-03-08 13:40:00,44.8,28.2,29.82,NE,55,2.0,4.0,52,0.00,BKN,,0.00,369.6,WeatherDisplay:10.37,2013-03-08 20:40:00,
2013-03-08 13:45:00,44.8,29.1,29.82,ENE,64,0.0,1.0,54,0.00,BKN,,0.00,485.1,WeatherDisplay:10.37,2013-03-08 20:45:00,
2013-03-08 13:50:00,45.2,28.6,29.81,North,351,2.0,3.0,52,0.00,BKN,,0.00,595.1,WeatherDisplay:10.37,2013-03-08 20:50:00,
2013-03-08 13:55:00,45.6,29.0,29.81,NNW,338,2.0,4.0,52,0.00,BKN,,0.00,586.3,WeatherDisplay:10.37,2013-03-08 20:55:00,
2013-03-08 14:00:00,45.2,28.6,29.81,North,9,2.0,4.0,52,0.00,BKN,,0.00,668.8,WeatherDisplay:10.37,2013-03-08 21:00:00,
2013-03-08 14:05:00,46.0,28.4,29.81,North,11,3.0,5.0,50,0.00,BKN,,0.00,619.3,WeatherDisplay:10.37,2013-03-08 21:05:00,
2013-03-08 14:10:00,45.7,28.1,29.81,NNE,20,2.0,7.0,50,0.00,BKN,,0.00,574.2,WeatherDisplay:10.37,2013-03-08 21:10:00,
2013-03-08 14:15:00,45.3,28.2,29.80,NNE,32,2.0,7.0,51,0.00,BKN,,0.00,563.2,WeatherDisplay:10.37,2013-03-08 21:15:00,
2013-03-08 14:20:00,45.6,28.0,24.39,NNW,329,0.0,6.0,51,0.00,,,0.00,512,weatherlink.com 1.10,2013-03-08 21:20:00,
2013-03-08 14:25:00,46.3,28.6,29.80,NE,34,0.0,3.0,50,0.00,OVC,,0.00,553.3,WeatherDisplay:10.37,2013-03-08 21:25:00,
2013-03-08 14:30:00,47.3,28.6,29.80,NE,34,1.0,4.0,48,0.00,OVC,,0.00,489.5,WeatherDisplay:10.37,2013-03-08 21:30:00,
2013-03-08 14:35:00,47.1,28.4,29.80,NW,313,2.0,5.0,48,0.00,OVC,,0.00,572.0,WeatherDisplay:10.37,2013-03-08 21:35:00,
2013-03-08 14:40:00,46.3,27.7,29.80,NW,323,1.0,6.0,48,0.00,OVC,,0.00,628.1,WeatherDisplay:10.37,2013-03-08 21:40:00,
2013-03-08 14:45:00,46.9,27.7,29.80,North,351,5.0,6.0,47,0.00,OVC,,0.00,589.6,WeatherDisplay:10.37,2013-03-08 21:45:00,
2013-03-08 14:50:00,47.6,28.8,29.80,North,360,1.0,5.0,48,0.00,OVC,,0.00,627.0,WeatherDisplay:10.37,2013-03-08 21:50:00,
2013-03-08 14:55:00,48.7,28.3,29.79,NW,319,1.0,4.0,45,0.00,OVC,,0.00,421.3,WeatherDisplay:10.37,2013-03-08 21:55:00,
2013-03-08 15:00:00,47.8,28.0,29.79,WNW,299,3.0,6.0,46,0.00,OVC,,0.00,257.4,WeatherDisplay:10.37,2013-03-08 22:00:00,
2013-03-08 15:05:00,47.0,28.0,24.38,NW,316,3.0,6.0,48,0.00,,,0.00,364,weatherlink.com 1.10,2013-03-08 22:05:00,
2013-03-08 15:10:00,46.8,28.6,29.79,NNW,340,2.0,5.0,49,0.00,OVC,,0.00,387.2,WeatherDisplay:10.37,2013-03-08 22:10:00,
2013-03-08 15:15:00,47.1,28.9,29.79,North,359,3.0,6.0,49,0.00,OVC,,0.00,331.1,WeatherDisplay:10.37,2013-03-08 22:15:00,
2013-03-08 15:20:00,46.9,29.0,24.38,NNE,13,2.0,6.0,51,0.00,,,0.00,288,weatherlink.com 1.10,2013-03-08 22:20:00,
2013-03-08 15:25:00,46.8,28.6,29.79,North,5,1.0,5.0,49,0.00,OVC,,0.00,355.3,WeatherDisplay:10.37,2013-03-08 22:25:00,
2013-03-08 15:30:00,46.9,28.7,29.79,NNW,342,3.0,6.0,49,0.00,OVC,,0.00,492.8,WeatherDisplay:10.37,2013-03-08 22:30:00,
2013-03-08 15:35:00,47.0,28.3,29.79,NNW,333,3.0,6.0,48,0.00,OVC,,0.00,396.0,WeatherDisplay:10.37,2013-03-08 22:35:00,
2013-03-08 15:40:00,46.9,28.2,29.79,NNW,348,0.2,1.1,48,0.00,OVC,,0.00,375.1,WeatherDisplay:10.37,2013-03-08 22:40:00,
2013-03-08 15:45:00,47.1,28.4,29.78,NNE,24,0.1,1.1,48,0.00,OVC,,0.00,385.0,WeatherDisplay:10.37,2013-03-08 22:45:00,
2013-03-08 15:50:00,47.1,28.4,29.78,NNE,20,1.0,3.5,48,0.00,OVC,,0.00,309.1,WeatherDisplay:10.37,2013-03-08 22:50:00,
2013-03-08 15:55:00,47.2,28.5,29.78,NNE,20,2.5,4.6,48,0.00,OVC,,0.00,301.4,WeatherDisplay:10.37,2013-03-08 22:55:00,
2013-03-08 16:00:00,47.1,28.4,29.78,North,350,0.9,3.5,48,0.00,OVC,,0.00,316.8,WeatherDisplay:10.37,2013-03-08 23:00:00,
2013-03-08 16:05:00,47.0,28.3,29.78,NNW,338,1.2,3.5,48,0.00,OVC,,0.00,336.6,WeatherDisplay:10.37,2013-03-08 23:05:00,
2013-03-08 16:10:00,47.1,28.9,29.78,North,355,0.3,1.1,49,0.00,OVC,,0.00,301.4,WeatherDisplay:10.37,2013-03-08 23:10:00,
2013-03-08 16:15:00,47.2,28.5,29.78,NW,318,4.8,6.9,48,0.00,OVC,,0.00,275.0,WeatherDisplay:10.37,2013-03-08 23:15:00,
2013-03-08 16:20:00,47.3,28.6,29.78,North,355,2.8,4.6,48,0.00,BKN,,0.00,203.5,WeatherDisplay:10.37,2013-03-08 23:20:00,
2013-03-08 16:25:00,47.2,28.5,29.78,NNE,22,3.2,4.6,48,0.00,BKN,,0.00,156.2,WeatherDisplay:10.37,2013-03-08 23:25:00,
2013-03-08 16:30:00,47.0,28.8,29.78,NE,54,2.7,5.0,49,0.00,BKN,,0.00,114.4,WeatherDisplay:10.37,2013-03-08 23:30:00,
2013-03-08 16:35:00,46.9,28.7,29.78,NE,52,1.9,3.5,49,0.00,BKN,,0.00,100.1,WeatherDisplay:10.37,2013-03-08 23:35:00,
2013-03-08 16:40:00,46.7,28.5,29.78,NE,40,3.0,4.6,49,0.00,BKN,,0.00,106.7,WeatherDisplay:10.37,2013-03-08 23:40:00,
2013-03-08 16:45:00,46.6,28.4,29.78,NE,49,1.5,2.3,49,0.00,BKN,,0.00,114.4,WeatherDisplay:10.37,2013-03-08 23:45:00,
2013-03-08 16:50:00,46.6,28.4,29.78,NE,39,0.0,0.0,49,0.00,BKN,,0.00,152.9,WeatherDisplay:10.37,2013-03-08 23:50:00,
2013-03-08 16:55:00,46.5,28.3,29.78,NNE,21,1.4,3.5,49,0.00,BKN,,0.00,140.8,WeatherDisplay:10.37,2013-03-08 23:55:00,
2013-03-08 17:00:00,46.5,28.8,29.78,North,5,0.9,3.0,50,0.00,BKN,,0.00,117.7,WeatherDisplay:10.37,2013-03-09 00:00:00,
2013-03-08 17:05:00,46.4,29.7,29.78,ENE,59,4.4,8.0,52,0.00,BKN,,0.00,73.7,WeatherDisplay:10.37,2013-03-09 00:05:00,
2013-03-08 17:10:00,46.1,31.3,29.77,ESE,116,7.4,11.5,56,0.00,BKN,,0.00,56.1,WeatherDisplay:10.37,2013-03-09 00:10:00,
2013-03-08 17:15:00,45.5,31.6,29.77,NE,47,5.9,8.1,58,0.00,BKN,,0.00,50.6,WeatherDisplay:10.37,2013-03-09 00:15:00,
2013-03-08 17:20:00,45.0,31.9,29.77,ENE,63,4.9,8.1,60,0.00,BKN,,0.00,46.2,WeatherDisplay:10.37,2013-03-09 00:20:00,
2013-03-08 17:25:00,44.6,32.0,29.78,East,91,3.7,6.9,61,0.00,BKN,,0.00,40.7,WeatherDisplay:10.37,2013-03-09 00:25:00,
2013-03-08 17:30:00,44.1,31.9,29.78,NE,36,4.2,7.0,62,0.00,BKN,,0.00,33.0,WeatherDisplay:10.37,2013-03-09 00:30:00,
2013-03-08 17:35:00,43.6,31.8,29.78,NE,53,3.1,5.8,63,0.00,BKN,,0.00,23.1,WeatherDisplay:10.37,2013-03-09 00:35:00,
2013-03-08 17:40:00,43.3,31.9,29.78,ENE,61,3.4,8.0,64,0.00,BKN,,0.00,13.2,WeatherDisplay:10.37,2013-03-09 00:40:00,
2013-03-08 17:45:00,43.0,32.0,29.78,ENE,75,3.7,6.9,65,0.00,BKN,,0.00,7.7,WeatherDisplay:10.37,2013-03-09 00:45:00,
2013-03-08 17:50:00,42.7,31.7,29.78,NE,47,5.5,6.9,65,0.00,BKN,,0.00,0.0,WeatherDisplay:10.37,2013-03-09 00:50:00,
2013-03-08 17:55:00,42.5,31.9,29.79,ENE,63,4.3,6.9,66,0.00,BKN,,0.00,0.0,WeatherDisplay:10.37,2013-03-09 00:55:00,
2013-03-08 18:00:00,42.3,31.7,29.79,ENE,57,2.1,3.5,66,0.00,BKN,,0.00,0.0,WeatherDisplay:10.37,2013-03-09 01:00:00,
2013-03-08 18:05:00,42.2,31.6,29.79,ENE,71,0.0,2.3,66,0.00,BKN,,0.00,0.0,WeatherDisplay:10.37,2013-03-09 01:05:00,
2013-03-08 18:10:00,42.1,31.9,29.79,ENE,63,0.4,2.3,67,0.00,BKN,,0.00,0.0,WeatherDisplay:10.37,2013-03-09 01:10:00,
2013-03-08 18:15:00,42.0,31.8,29.79,ENE,63,1.5,3.5,67,0.00,BKN,,0.00,0.0,WeatherDisplay:10.37,2013-03-09 01:15:00,
2013-03-08 18:20:00,41.9,31.7,29.78,ENE,60,3.2,4.0,67,0.00,BKN,,0.00,0.0,WeatherDisplay:10.37,2013-03-09 01:20:00,
2013-03-08 18:25:00,41.8,31.6,29.78,ENE,60,1.5,3.5,67,0.00,BKN,,0.00,0.0,WeatherDisplay:10.37,2013-03-09 01:25:00,
2013-03-08 18:30:00,41.7,31.5,29.78,NE,40,0.9,2.3,67,0.00,BKN,,0.00,0.0,WeatherDisplay:10.37,2013-03-09 01:30:00,
2013-03-08 18:35:00,41.6,31.4,29.78,NE,40,0.8,3.0,67,0.00,BKN,,0.00,0.0,WeatherDisplay:10.37,2013-03-09 01:35:00,
2013-03-08 18:40:00,41.4,31.6,29.78,NE,40,0.5,1.1,68,0.00,BKN,,0.00,0.0,WeatherDisplay:10.37,2013-03-09 01:40:00,
2013-03-08 18:45:00,41.3,31.5,29.78,NE,40,0.2,1.1,68,0.00,BKN,,0.00,0.0,WeatherDisplay:10.37,2013-03-09 01:45:00,
2013-03-08 18:50:00,41.2,31.4,29.79,NE,40,0.6,2.3,68,0.00,BKN,,0.00,0.0,WeatherDisplay:10.37,2013-03-09 01:50:00,
2013-03-08 18:56:00,41.1,31.3,29.79,NE,39,0.8,1.1,68,0.00,BKN,,0.00,0.0,WeatherDisplay:10.37,2013-03-09 01:56:00,
2013-03-08 19:01:00,41.1,31.3,29.79,NE,39,0.5,1.1,68,0.00,BKN,,0.00,0.0,WeatherDisplay:10.37,2013-03-09 02:01:00,
2013-03-08 19:06:00,41.0,31.6,29.79,NE,39,1.3,3.5,69,0.00,BKN,,0.00,0.0,WeatherDisplay:10.37,2013-03-09 02:06:00,
2013-03-08 19:11:00,40.9,31.5,29.79,NNE,25,2.0,3.0,69,0.00,BKN,,0.00,0.0,WeatherDisplay:10.37,2013-03-09 02:11:00,
2013-03-08 19:16:00,40.8,31.4,29.78,North,5,1.3,3.5,69,0.00,BKN,,0.00,0.0,WeatherDisplay:10.37,2013-03-09 02:16:00,
2013-03-08 19:21:00,40.7,32.0,24.38,North,360,0.0,4.0,71,0.00,,,0.00,0,weatherlink.com 1.10,2013-03-09 02:21:00,
2013-03-08 19:26:00,40.6,31.2,29.79,North,360,0.0,1.1,69,0.00,BKN,,0.00,0.0,WeatherDisplay:10.37,2013-03-09 02:26:00,
2013-03-08 19:31:00,40.6,31.6,29.79,North,360,0.0,1.1,70,0.00,BKN,,0.00,0.0,WeatherDisplay:10.37,2013-03-09 02:31:00,
2013-03-08 19:36:00,40.5,31.5,29.78,North,360,1.5,2.3,70,0.00,BKN,,0.00,0.0,WeatherDisplay:10.37,2013-03-09 02:36:00,
2013-03-08 19:41:00,40.5,31.5,29.78,North,360,1.3,3.5,70,0.00,BKN,,0.00,0.0,WeatherDisplay:10.37,2013-03-09 02:41:00,
2013-03-08 19:46:00,40.4,31.4,29.78,North,360,0.0,1.1,70,0.00,BKN,,0.00,0.0,WeatherDisplay:10.37,2013-03-09 02:46:00,
2013-03-08 19:51:00,40.2,31.5,29.77,North,355,0.4,3.5,71,0.00,BKN,,0.00,0.0,WeatherDisplay:10.37,2013-03-09 02:51:00,
2013-03-08 19:56:00,40.1,31.4,29.79,North,355,0.0,0.0,71,0.00,BKN,,0.00,0.0,WeatherDisplay:10.37,2013-03-09 02:56:00,
2013-03-08 20:01:00,40.0,31.4,29.79,North,355,0.0,1.1,71,0.00,BKN,,0.00,0.0,WeatherDisplay:10.37,2013-03-09 03:01:00,
2013-03-08 20:06:00,40.0,31.4,29.78,North,355,0.0,0.0,71,0.00,BKN,,0.00,0.0,WeatherDisplay:10.37,2013-03-09 03:06:00,
2013-03-08 20:11:00,39.8,31.2,29.79,North,355,0.0,0.0,71,0.00,BKN,,0.00,0.0,WeatherDisplay:10.37,2013-03-09 03:11:00,
2013-03-08 20:16:00,39.7,31.1,29.78,North,355,0.2,1.1,71,0.00,BKN,,0.00,0.0,WeatherDisplay:10.37,2013-03-09 03:16:00,
2013-03-08 20:21:00,39.6,31.3,29.78,North,355,0.0,0.0,72,0.00,BKN,,0.00,0.0,WeatherDisplay:10.37,2013-03-09 03:21:00,
2013-03-08 20:26:00,39.5,31.2,29.78,North,355,0.0,0.0,72,0.00,BKN,,0.00,0.0,WeatherDisplay:10.37,2013-03-09 03:26:00,
2013-03-08 20:31:00,39.3,31.0,29.78,North,355,0.0,0.0,72,0.00,BKN,,0.00,0.0,WeatherDisplay:10.37,2013-03-09 03:31:00,
2013-03-08 20:36:00,39.2,32.0,24.37,North,355,0.0,1.0,75,0.00,,,0.00,0,weatherlink.com 1.10,2013-03-09 03:36:00,
2013-03-08 20:41:00,39.1,31.2,29.78,North,355,0.0,0.0,73,0.00,BKN,,0.00,0.0,WeatherDisplay:10.37,2013-03-09 03:41:00,
2013-03-08 20:46:00,38.9,31.0,29.78,North,355,0.3,1.1,73,0.00,BKN,,0.00,0.0,WeatherDisplay:10.37,2013-03-09 03:46:00,
2013-03-08 20:51:00,38.7,31.1,29.78,North,355,0.0,1.1,74,0.00,BKN,,0.00,0.0,WeatherDisplay:10.37,2013-03-09 03:51:00,
2013-03-08 20:56:00,38.7,31.1,29.78,North,355,0.3,1.1,74,0.00,BKN,,0.00,0.0,WeatherDisplay:10.37,2013-03-09 03:56:00,
2013-03-08 21:01:00,38.5,30.9,29.78,North,355,0.4,1.1,74,0.00,BKN,,0.00,0.0,WeatherDisplay:10.37,2013-03-09 04:01:00,
2013-03-08 21:06:00,38.4,31.2,29.78,North,355,0.0,0.0,75,0.00,BKN,,0.00,0.0,WeatherDisplay:10.37,2013-03-09 04:06:00,
2013-03-08 21:11:00,38.2,31.0,29.78,North,355,0.0,0.0,75,0.00,BKN,,0.00,0.0,WeatherDisplay:10.37,2013-03-09 04:11:00,
2013-03-08 21:16:00,38.1,30.9,29.78,North,355,0.0,1.1,75,0.00,BKN,,0.00,0.0,WeatherDisplay:10.37,2013-03-09 04:16:00,
2013-03-08 21:21:00,38.0,31.1,29.77,North,355,0.0,1.1,76,0.00,BKN,,0.00,0.0,WeatherDisplay:10.37,2013-03-09 04:21:00,
2013-03-08 21:26:00,37.9,31.0,29.77,North,355,0.0,0.0,76,0.00,BKN,,0.00,0.0,WeatherDisplay:10.37,2013-03-09 04:26:00,
2013-03-08 21:31:00,37.7,30.8,29.77,North,355,0.2,1.1,76,0.00,BKN,,0.00,0.0,WeatherDisplay:10.37,2013-03-09 04:31:00,
2013-03-08 21:36:00,37.5,30.9,29.77,North,355,0.0,0.0,77,0.00,BKN,,0.00,0.0,WeatherDisplay:10.37,2013-03-09 04:36:00,
2013-03-08 21:41:00,37.3,31.1,29.77,North,355,0.0,0.0,78,0.00,BKN,,0.00,0.0,WeatherDisplay:10.37,2013-03-09 04:41:00,
2013-03-08 21:46:00,37.2,31.0,29.77,North,355,0.0,0.0,78,0.00,BKN,,0.00,0.0,WeatherDisplay:10.37,2013-03-09 04:46:00,
2013-03-08 21:51:00,37.0,30.8,29.77,North,355,0.0,0.0,78,0.00,BKN,,0.00,0.0,WeatherDisplay:10.37,2013-03-09 04:51:00,
2013-03-08 21:56:00,36.8,30.6,29.77,North,355,0.6,1.1,78,0.00,BKN,,0.00,0.0,WeatherDisplay:10.37,2013-03-09 04:56:00,
2013-03-08 22:00:00,36.6,30.4,29.77,North,355,0.0,1.0,78,0.00,BKN,,0.00,0.0,WeatherDisplay:10.37,2013-03-09 05:00:00,
2013-03-08 22:01:00,36.6,30.4,29.77,North,355,0.3,1.1,78,0.00,BKN,,0.00,0.0,WeatherDisplay:10.37,2013-03-09 05:01:00,
2013-03-08 22:06:00,36.4,30.2,29.77,North,355,0.0,0.0,78,0.00,BKN,,0.00,0.0,WeatherDisplay:10.37,2013-03-09 05:06:00,
2013-03-08 22:11:00,36.2,30.3,29.77,North,355,0.0,0.0,79,0.00,BKN,,0.00,0.0,WeatherDisplay:10.37,2013-03-09 05:11:00,
2013-03-08 22:16:00,36.0,30.1,29.76,North,355,0.0,0.0,79,0.00,BKN,,0.00,0.0,WeatherDisplay:10.37,2013-03-09 05:16:00,
2013-03-08 22:21:00,35.8,29.9,29.76,North,355,0.0,0.0,79,0.00,BKN,,0.00,0.0,WeatherDisplay:10.37,2013-03-09 05:21:00,
2013-03-08 22:26:00,35.6,29.7,29.76,North,355,0.0,0.0,79,0.00,BKN,,0.00,0.0,WeatherDisplay:10.37,2013-03-09 05:26:00,
2013-03-08 22:31:00,35.4,30.1,29.75,North,355,0.0,0.0,81,0.00,SCT,,0.00,0.0,WeatherDisplay:10.37,2013-03-09 05:31:00,
2013-03-08 22:36:00,35.3,30.1,29.75,North,355,0.0,0.0,81,0.00,SCT,,0.00,0.0,WeatherDisplay:10.37,2013-03-09 05:36:00,
2013-03-08 22:41:00,35.1,29.9,29.74,North,355,0.2,1.1,81,0.00,SCT,,0.00,0.0,WeatherDisplay:10.37,2013-03-09 05:41:00,
2013-03-08 22:46:00,34.9,30.0,29.74,North,355,0.0,0.0,82,0.00,SCT,,0.00,0.0,WeatherDisplay:10.37,2013-03-09 05:46:00,
2013-03-08 22:51:00,34.7,29.8,29.74,NNW,348,1.8,3.5,82,0.00,SCT,,0.00,0.0,WeatherDisplay:10.37,2013-03-09 05:51:00,
2013-03-08 22:56:00,34.8,30.5,29.74,NNW,348,0.2,2.3,84,0.00,SCT,,0.00,0.0,WeatherDisplay:10.37,2013-03-09 05:56:00,
2013-03-08 23:01:00,34.8,30.5,29.74,NNW,348,0.4,1.1,84,0.00,SCT,,0.00,0.0,WeatherDisplay:10.37,2013-03-09 06:01:00,
2013-03-08 23:06:00,34.7,30.7,29.73,NNW,348,0.0,0.0,85,0.00,SCT,,0.00,0.0,WeatherDisplay:10.37,2013-03-09 06:06:00,
2013-03-08 23:11:00,34.7,30.4,29.74,NNW,348,0.0,0.0,84,0.00,SCT,,0.00,0.0,WeatherDisplay:10.37,2013-03-09 06:11:00,
2013-03-08 23:16:00,34.6,30.3,29.73,NNW,348,0.0,0.0,84,0.00,CLR,,0.00,0.0,WeatherDisplay:10.37,2013-03-09 06:16:00,
2013-03-08 23:21:00,34.6,30.3,29.73,NNW,348,0.0,0.0,84,0.00,CLR,,0.00,0.0,WeatherDisplay:10.37,2013-03-09 06:21:00,
2013-03-08 23:26:00,34.5,30.2,29.73,NNW,348,0.0,0.0,84,0.00,CLR,,0.00,0.0,WeatherDisplay:10.37,2013-03-09 06:26:00,
2013-03-08 23:31:00,34.4,30.1,29.73,NNW,348,0.0,0.0,84,0.00,CLR,,0.00,0.0,WeatherDisplay:10.37,2013-03-09 06:31:00,
2013-03-08 23:36:00,34.3,30.0,29.73,NNW,348,0.0,0.0,84,0.00,CLR,,0.00,0.0,WeatherDisplay:10.37,2013-03-09 06:36:00,
2013-03-08 23:41:00,34.1,29.8,29.72,NNW,348,0.0,0.0,84,0.00,CLR,,0.00,0.0,WeatherDisplay:10.37,2013-03-09 06:41:00,
2013-03-08 23:46:00,34.0,29.7,29.72,NNW,348,0.0,0.0,84,0.00,CLR,,0.00,0.0,WeatherDisplay:10.37,2013-03-09 06:46:00,
2013-03-08 23:51:00,33.9,29.6,29.72,NNW,348,0.0,0.0,84,0.00,CLR,,0.00,0.0,WeatherDisplay:10.37,2013-03-09 06:51:00,
2013-03-08 23:56:00,33.8,29.5,29.72,NNW,348,0.0,0.0,84,0.00,CLR,,0.00,0.0,WeatherDisplay:10.37,2013-03-09 06:56:00,